TimeMDT,TemperatureF,Dew PointF,Humidity,Sea Level PressureIn,VisibilityMPH,Wind Direction,Wind SpeedMPH,Gust SpeedMPH,PrecipitationIn,Events,Conditions,WindDirDegrees,DateUTC
12:53 AM,46.0,18.0,33,30.02,10.0,SE,6.9,-,N/A,,Clear,130,2012-10-08 06:53:00
1:53 AM,44.1,19.0,37,30.01,10.0,ESE,5.8,-,N/A,,Clear,120,2012-10-08 07:53:00
2:53 AM,43.0,18.0,37,30.01,10.0,SE,5.8,-,N/A,,Clear,130,2012-10-08 08:53:00
3:53 AM,42.1,19.9,41,30.01,10.0,Calm,Calm,-,N/A,,Clear,0,2012-10-08 09:53:00
4:53 AM,39.9,18.0,41,30.01,10.0,SE,3.5,-,N/A,,Clear,140,2012-10-08 10:53:00
5:53 AM,39.9,18.0,41,30.01,10.0,SSE,3.5,-,N/A,,Clear,150,2012-10-08 11:53:00
6:53 AM,37.0,17.1,44,30.01,10.0,ESE,5.8,-,N/A,,Clear,120,2012-10-08 12:53:00
7:53 AM,39.0,18.0,43,30.03,10.0,ESE,5.8,-,N/A,,Clear,120,2012-10-08 13:53:00
8:53 AM,41.0,18.0,40,30.05,10.0,SE,5.8,-,N/A,,Clear,130,2012-10-08 14:53:00
9:53 AM,48.9,18.0,29,30.04,10.0,ESE,3.5,-,N/A,,Clear,110,2012-10-08 15:53:00
10:53 AM,53.1,19.0,26,30.04,10.0,Calm,Calm,-,N/A,,Clear,0,2012-10-08 16:53:00
11:53 AM,57.0,19.0,23,30.02,10.0,NNW,3.5,-,N/A,,Clear,340,2012-10-08 17:53:00
12:53 PM,60.1,18.0,20,30.00,10.0,NNE,3.5,-,N/A,,Clear,30,2012-10-08 18:53:00
1:53 PM,62.1,19.0,19,29.97,10.0,Calm,Calm,-,N/A,,Clear,0,2012-10-08 19:53:00
2:53 PM,64.0,19.0,18,29.95,10.0,West,6.9,-,N/A,,Clear,280,2012-10-08 20:53:00
3:53 PM,66.0,18.0,16,29.93,10.0,Variable,5.8,-,N/A,,Clear,0,2012-10-08 21:53:00
4:53 PM,66.9,18.0,15,29.92,10.0,WNW,6.9,-,N/A,,Clear,300,2012-10-08 22:53:00
5:53 PM,66.9,19.0,16,29.90,10.0,WNW,5.8,-,N/A,,Clear,300,2012-10-08 23:53:00
6:53 PM,63.0,18.0,18,29.91,10.0,NW,4.6,-,N/A,,Clear,310,2012-10-09 00:53:00
7:53 PM,60.1,19.9,21,29.90,10.0,Calm,Calm,-,N/A,,Clear,0,2012-10-09 01:53:00
8:53 PM,54.0,21.9,29,29.91,10.0,Calm,Calm,-,N/A,,Clear,0,2012-10-09 02:53:00
9:53 PM,51.1,19.9,29,29.92,10.0,Calm,Calm,-,N/A,,Clear,0,2012-10-09 03:53:00
10:53 PM,48.9,19.0,31,29.93,10.0,SSE,3.5,-,N/A,,Clear,160,2012-10-09 04:53:00
11:53 PM,46.0,19.0,34,29.94,10.0,SE,4.6,-,N/A,,Clear,130,2012-10-09 05:53:00